Weather History for Terrell, TX

Change the Weather History Date:

Wednesday, September 18, 2013

  Actual Average (KDFW) Record (KDFW)
Temperature  
Mean Temperature 86 °F 77 °F  
Max Temperature 97 °F 88 °F 100 °F (1975)
Min Temperature 77 °F 67 °F 47 °F (1981)
Degree Days  
Heating Degree Days 0 0  
Month to date heating degree days 0  
Since 1 July heating degree days 0  
Cooling Degree Days 22 12  
Month to date cooling degree days 273  
Year to date cooling degree days 2455  
Growing Degree Days 36 (Base 50)    
Moisture  
Dew Point 64 °F    
Average Humidity 49    
Maximum Humidity 79    
Minimum Humidity 29    
Precipitation  
Precipitation 0.00 in 0.08 in 0.51 in (2001)
Month to date precipitation 1.63  
Year to date precipitation 25.74  
Sea Level Pressure  
Sea Level Pressure 29.95 in    
Wind  
Wind Speed 6 mph (SSE)    
Max Wind Speed 12 mph    
Max Gust Speed 21 mph    
Visibility 10 miles    
Events      
T = Trace of Precipitation, MM = Missing Value Source: NWS Daily Summary

Daily Weather History Graph

Daily Weather History Graph

Search for Another Location

Airport:

Trip Planner

Search our weather history database for the weather conditions in past years. The results will help you decide how hot, cold, wet, or windy it might be!

Date:

Astronomy

Sep. 18, 2013 Rise Set
Actual Time 7:10 AM CDT 7:26 PM CDT
Civil Twilight 6:46 AM CDT 7:51 PM CDT
Nautical Twilight 6:17 AM CDT 8:20 PM CDT
Astronomical Twilight 5:48 AM CDT 8:49 PM CDT
Moon 6:51 PM CDT (9/18) 6:15 AM CDT (9/18)
Length of Visible Light 13h 05m
Length of Day
12h 15m
Waxing Gibbous, 99% of the Moon is Illuminated
Sep 18
Waxing Gibbous
Sep 19
Full
Sep 26
Last Quarter
Oct 4
New
Oct 11
First Quarter

Hourly Weather History & Observations

Time (CDT) Temp. Heat Index Dew Point Humidity Pressure Visibility Wind Dir Wind Speed Gust Speed Precip Events Conditions
12:53 AM 81.0 °F 82.7 °F 64.9 °F 58% 29.98 in 10.0 mi ESE 5.8 mph - N/A   Clear
1:53 AM 80.1 °F 81.9 °F 64.9 °F 60% 29.98 in 10.0 mi SE 3.5 mph - N/A   Clear
2:53 AM 79.0 °F - 66.0 °F 64% 29.98 in 10.0 mi SSE 3.5 mph - N/A   Clear
3:53 AM 78.1 °F - 66.9 °F 68% 29.97 in 10.0 mi SSE 5.8 mph - N/A   Clear
4:53 AM 78.1 °F - 66.9 °F 68% 29.96 in 10.0 mi Calm Calm - N/A   Clear
5:53 AM 78.1 °F - 68.0 °F 71% 29.96 in 10.0 mi SSE 3.5 mph - N/A   Clear
6:53 AM 77.0 °F - 68.0 °F 74% 29.97 in 10.0 mi SSE 4.6 mph - N/A   Clear
7:53 AM 77.0 °F - 70.0 °F 79% 29.99 in 10.0 mi South 3.5 mph - N/A   Clear
8:53 AM 82.9 °F 86.5 °F 69.1 °F 63% 30.00 in 10.0 mi South 6.9 mph - N/A   Clear
9:53 AM 87.1 °F 90.6 °F 68.0 °F 53% 30.01 in 10.0 mi South 9.2 mph - N/A   Clear
10:53 AM 90.0 °F 92.8 °F 66.9 °F 46% 30.01 in 10.0 mi South 11.5 mph - N/A   Clear
11:53 AM 93.0 °F 95.0 °F 64.9 °F 39% 30.00 in 10.0 mi South 11.5 mph 18.4 mph N/A   Partly Cloudy
12:53 PM 93.9 °F 95.6 °F 64.0 °F 37% 29.98 in 10.0 mi SSE 11.5 mph 17.3 mph N/A   Scattered Clouds
1:53 PM 95.0 °F 95.6 °F 62.1 °F 33% 29.96 in 10.0 mi South 9.2 mph - N/A   Clear
2:53 PM 96.1 °F 96.4 °F 61.0 °F 31% 29.92 in 10.0 mi SSE 10.4 mph - N/A   Clear
3:53 PM 96.1 °F 96.4 °F 61.0 °F 31% 29.89 in 10.0 mi SSW 10.4 mph 20.7 mph N/A   Partly Cloudy
4:53 PM 95.0 °F 94.4 °F 59.0 °F 30% 29.88 in 10.0 mi SSE 6.9 mph - N/A   Clear
5:53 PM 95.0 °F 94.0 °F 57.9 °F 29% 29.87 in 10.0 mi South 6.9 mph - N/A   Clear
6:53 PM 93.0 °F 92.0 °F 57.9 °F 31% 29.88 in 10.0 mi SSE 5.8 mph - N/A   Clear
7:53 PM 90.0 °F 89.1 °F 59.0 °F 35% 29.88 in 10.0 mi SE 3.5 mph - N/A   Clear
8:53 PM 88.0 °F 87.1 °F 59.0 °F 37% 29.89 in 10.0 mi SE 4.6 mph - N/A   Clear
9:53 PM 86.0 °F 85.0 °F 57.9 °F 38% 29.91 in 10.0 mi SE 5.8 mph - N/A   Clear
10:53 PM 84.0 °F 83.8 °F 59.0 °F 43% 29.92 in 10.0 mi SE 5.8 mph - N/A   Clear
11:53 PM 84.0 °F 84.5 °F 62.1 °F 47% 29.93 in 10.0 mi South 9.2 mph - N/A   Clear